Morgantown, WV

5:27 PM EST on February 26, 2017 (GMT -0500)
Morgantown Municipal-Hart

Weather History for KMGW - January, 1998

Change the Weather History Date:

Friday, January 16, 1998

  Actual Average Record
Temperature  
Mean Temperature 36 °F 31 °F  
Max Temperature 39 °F 39 °F 62 °F (1949)
Min Temperature 32 °F 24 °F -20 °F (1972)
Degree Days  
Heating Degree Days 29 34  
Month to date heating degree days 541  
Since 1 July heating degree days 2525  
Cooling Degree Days 0 0  
Month to date cooling degree days 0  
Year to date cooling degree days 0  
Moisture  
Dew Point 36 °F    
Average Humidity 100    
Maximum Humidity 100    
Minimum Humidity 100    
Precipitation  
Precipitation 0.00 in 0.09 in 0.74 in (1991)
Month to date precipitation 1.44  
Year to date precipitation 1.44  
Sea Level Pressure  
Sea Level Pressure 29.78 in    
Wind  
Wind Speed 3 mph (North)    
Max Wind Speed 9 mph    
Max Gust Speed -    
Visibility 1 miles    
Events Fog , Rain    
T = Trace of Precipitation, MM = Missing Value Source: NWS Daily Summary

Daily Weather History Graph

Daily Weather History Graph

Search for Another Location

Airport or City:

Trip Planner

Search our weather history database for the weather conditions in past years. The results will help you decide how hot, cold, wet, or windy it might be!

Date:

Astronomy

Jan. 16, 1998 Rise Set
Actual Time 7:38 AM EST 5:20 PM EST
Civil Twilight 7:08 AM EST 5:50 PM EST
Nautical Twilight 6:35 AM EST 6:23 PM EST
Astronomical Twilight 6:03 AM EST 6:55 PM EST
Moon 9:26 PM EST (1/16) 9:49 AM EST (1/16)
Length of Visible Light 10h 41m
Length of Day
9h 42m
Waning Gibbous, 85% of the Moon is Illuminated
Jan 16
Waning Gibbous
Jan 20
Last Quarter
Jan 28
New
Feb 3
First Quarter
Feb 11
Full

Hourly Weather History & Observations

Time (EST) Temp. Windchill Dew Point Humidity Pressure Visibility Wind Dir Wind Speed Gust Speed Precip Events Conditions
12:47 AM 39.2 °F - 39.2 °F 100% 29.76 in 2.0 mi Calm Calm - N/A Rain Rain Showers
1:00 AM 39.2 °F - 39.2 °F 100% 29.74 in 0.5 mi Calm Calm - N/A Fog Fog
1:47 AM 39.2 °F - 39.2 °F 100% 29.76 in 0.5 mi Calm Calm - N/A Fog Fog
2:47 AM 39.2 °F - 39.2 °F 100% 30.33 in 0.5 mi Calm Calm - N/A Fog Fog
3:50 AM 37.4 °F 30.8 °F 37.4 °F 100% 29.76 in 1.0 mi North 9.2 mph - N/A   Overcast
4:32 AM 37.4 °F - 37.4 °F 100% 29.73 in 2.0 mi Calm Calm - N/A   Overcast
4:46 AM 37.4 °F - 37.4 °F 100% 29.75 in 2.0 mi Calm Calm - N/A   Overcast
5:47 AM 35.6 °F - 35.6 °F 100% 29.77 in 1.0 mi Calm Calm - N/A   Overcast
6:01 AM 35.6 °F - 35.6 °F 100% 29.74 in 0.5 mi Calm Calm - N/A Fog Fog
6:47 AM 35.6 °F 31.7 °F 35.6 °F 100% 29.77 in 0.5 mi NNE 4.6 mph - N/A Fog Fog
7:45 AM 35.6 °F 29.9 °F 35.6 °F 100% 29.75 in 0.5 mi NNW 6.9 mph - N/A Fog Fog
8:20 AM 35.6 °F 30.7 °F 35.6 °F 100% 29.75 in 0.4 mi NNW 5.8 mph - N/A Fog Fog
8:35 AM 35.6 °F 29.9 °F 35.6 °F 100% 29.75 in 0.2 mi North 6.9 mph - N/A Fog Fog
8:45 AM 35.6 °F 30.7 °F 35.6 °F 100% 29.75 in 0.1 mi North 5.8 mph - N/A Fog Fog
9:45 AM 35.6 °F 30.7 °F 35.6 °F 100% 29.76 in 0.2 mi North 5.8 mph - N/A Fog Fog
10:45 AM 35.6 °F 29.9 °F 35.6 °F 100% 29.76 in 0.2 mi North 6.9 mph - N/A Fog Fog
11:45 AM 35.6 °F 29.9 °F 35.6 °F 100% 29.75 in 0.2 mi NNW 6.9 mph - N/A Fog Fog
12:45 PM 35.6 °F 30.7 °F 35.6 °F 100% 29.72 in 0.2 mi North 5.8 mph - N/A Fog Fog
1:45 PM 35.6 °F 30.7 °F 35.6 °F 100% 29.70 in 0.4 mi North 5.8 mph - N/A Fog Fog
2:00 PM 35.6 °F 29.2 °F 35.6 °F 100% 29.69 in 0.5 mi North 8.1 mph - N/A Fog Fog
2:12 PM 35.6 °F 29.9 °F 35.6 °F 100% 29.69 in 1.0 mi North 6.9 mph - N/A   Mist
2:45 PM 35.6 °F 29.9 °F 35.6 °F 100% 29.70 in 1.0 mi North 6.9 mph - N/A   Mist
3:45 PM 35.6 °F 29.9 °F 35.6 °F 100% 29.71 in 0.5 mi NNW 6.9 mph - N/A Fog Fog
4:45 PM 35.6 °F 30.7 °F 35.6 °F 100% 29.74 in 1.0 mi NNW 5.8 mph - N/A   Mist
5:45 PM 33.8 °F 28.6 °F 33.8 °F 100% 29.78 in 1.5 mi North 5.8 mph - N/A   Drizzle
6:45 PM 33.8 °F 29.6 °F 33.8 °F 100% 29.81 in 2.0 mi NW 4.6 mph - N/A   Light Drizzle
7:45 PM 33.8 °F 28.6 °F 33.8 °F 100% 29.82 in 2.0 mi NNW 5.8 mph - N/A   Light Drizzle
8:45 PM 33.8 °F 29.6 °F 33.8 °F 100% 29.84 in 2.5 mi NNW 4.6 mph - N/A   Light Drizzle
9:45 PM 33.8 °F 29.6 °F 33.8 °F 100% 29.85 in 2.5 mi NNW 4.6 mph - N/A   Light Drizzle
10:45 PM 33.8 °F - 33.8 °F 100% 29.87 in 2.0 mi Calm Calm - N/A   Drizzle
11:48 PM 32.0 °F - 32.0 °F 100% 29.90 in 2.5 mi Calm Calm - N/A Rain Rain Showers